| time (UTC) | temp C | wind direction | speed KPH | gust KPH | rain 1hr cm | rain 24hr cm | rain mn cm | humidity % | barometer mb |
| 20260507134516 | 10 | 150 | 0.0 | 0.0 | 0.00 | 0.00 | 0.00 | 85 | 1019.9 |
| 20260507133015 | 8 | 150 | 0.0 | 0.0 | 0.00 | 0.00 | 0.00 | 90 | 1019.8 |
| 20260507131518 | 8 | 151 | 0.0 | 0.0 | 0.00 | 0.00 | 0.00 | 92 | 1019.8 |
| 20260507130012 | 7 | 150 | 0.0 | 0.0 | 0.00 | 0.00 | 0.00 | 93 | 1019.7 |
| 20260507124513 | 6 | 151 | 0.0 | 0.0 | 0.00 | 0.00 | 0.00 | 93 | 1019.6 |
| 20260507123009 | 6 | 150 | 0.0 | 0.0 | 0.00 | 0.00 | 0.00 | 93 | 1019.6 |
| 20260507121511 | 5 | 150 | 0.0 | 0.0 | 0.00 | 0.00 | 0.00 | 93 | 1019.4 |
| 20260507120008 | 5 | 150 | 0.0 | 0.0 | 0.00 | 0.00 | 0.00 | 92 | 1019.1 |
| 20260507114506 | 5 | 150 | 0.0 | 0.0 | 0.00 | 0.00 | 0.00 | 92 | 1019.1 |
| 20260507113014 | 5 | 150 | 0.0 | 0.0 | 0.00 | 0.00 | 0.00 | 91 | 1019.0 |
| 20260507111504 | 5 | 150 | 0.0 | 0.0 | 0.00 | 0.00 | 0.00 | 91 | 1018.9 |
| 20260507110001 | 5 | 150 | 0.0 | 0.0 | 0.00 | 0.00 | 0.00 | 91 | 1018.8 |
| 20260507104502 | 5 | 150 | 0.0 | 0.0 | 0.00 | 0.00 | 0.00 | 91 | 1018.9 |
| 20260507103059 | 5 | 150 | 0.0 | 0.0 | 0.00 | 0.00 | 0.00 | 90 | 1018.8 |
| 20260507101559 | 6 | 150 | 0.0 | 0.0 | 0.00 | 0.00 | 0.00 | 91 | 1018.9 |
| 20260507100111 | 6 | 150 | 0.0 | 0.0 | 0.00 | 0.00 | 0.00 | 90 | 1019.0 |
| 20260507094604 | 6 | 150 | 0.0 | 0.0 | 0.00 | 0.00 | 0.00 | 90 | 1018.6 |
| 20260507093056 | 6 | 150 | 0.0 | 0.0 | 0.00 | 0.00 | 0.00 | 90 | 1018.4 |
| 20260507091620 | 6 | 150 | 0.0 | 0.0 | 0.00 | 0.00 | 0.00 | 89 | 1018.5 |
| 20260507090053 | 6 | 150 | 0.0 | 0.0 | 0.00 | 0.00 | 0.00 | 89 | 1018.9 |
| 20260507084603 | 6 | 150 | 0.0 | 0.0 | 0.00 | 0.00 | 0.00 | 88 | 1018.8 |
| 20260507083050 | 6 | 150 | 0.0 | 0.0 | 0.00 | 0.00 | 0.00 | 87 | 1018.9 |
| 20260507081556 | 6 | 150 | 0.0 | 0.0 | 0.00 | 0.00 | 0.00 | 87 | 1018.8 |
| 20260507080046 | 6 | 150 | 0.0 | 0.0 | 0.00 | 0.00 | 0.00 | 86 | 1018.6 |
| 20260507074549 | 7 | 150 | 0.0 | 0.0 | 0.00 | 0.00 | 0.00 | 85 | 1018.5 |
| 20260507073043 | 7 | 150 | 0.0 | 0.0 | 0.00 | 0.00 | 0.00 | 84 | 1018.9 |
| 20260507071539 | 7 | 150 | 0.0 | 0.0 | 0.00 | 0.00 | 0.00 | 83 | 1018.7 |
| 20260507070039 | 7 | 150 | 0.0 | 0.0 | 0.00 | 0.00 | 0.00 | 82 | 1019.0 |
| 20260507064538 | 8 | 150 | 0.0 | 0.0 | 0.00 | 0.00 | 0.00 | 80 | 1019.2 |
| 20260507063038 | 8 | 150 | 0.0 | 0.0 | 0.00 | 0.00 | 0.00 | 79 | 1019.2 |
| 20260507061530 | 8 | 150 | 0.0 | 0.0 | 0.00 | 0.00 | 0.00 | 76 | 1019.1 |
| 20260507060028 | 9 | 150 | 0.0 | 0.0 | 0.00 | 0.00 | 0.00 | 75 | 1018.9 |
| 20260507054526 | 9 | 150 | 0.0 | 0.0 | 0.00 | 0.00 | 0.00 | 76 | 1018.6 |
| 20260507053025 | 9 | 150 | 0.0 | 0.0 | 0.00 | 0.00 | 0.00 | 75 | 1018.8 |
| 20260507051521 | 9 | 150 | 0.0 | 0.0 | 0.00 | 0.00 | 0.00 | 72 | 1018.6 |
| 20260507050025 | 10 | 150 | 0.0 | 0.0 | 0.00 | 0.00 | 0.00 | 69 | 1018.6 |
| 20260507044517 | 10 | 150 | 0.0 | 0.0 | 0.00 | 0.00 | 0.00 | 67 | 1018.5 |
| 20260507043024 | 11 | 150 | 0.0 | 0.0 | 0.00 | 0.00 | 0.00 | 67 | 1018.5 |
| 20260507041516 | 11 | 150 | 0.0 | 0.0 | 0.00 | 0.00 | 0.00 | 65 | 1018.5 |
| 20260507040016 | 12 | 150 | 0.0 | 0.0 | 0.00 | 0.00 | 0.00 | 63 | 1018.4 |
| 20260507034522 | 12 | 150 | 0.0 | 0.0 | 0.00 | 0.00 | 0.00 | 60 | 1018.5 |
| 20260507033016 | 12 | 150 | 0.0 | 0.0 | 0.00 | 0.00 | 0.00 | 58 | 1018.3 |
| 20260507031517 | 13 | 150 | 0.0 | 0.0 | 0.00 | 0.00 | 0.00 | 55 | 1018.1 |
| 20260507030015 | 13 | 171 | 0.0 | 0.0 | 0.00 | 0.00 | 0.00 | 54 | 1018.0 |
| 20260507024518 | 13 | 165 | 0.0 | 0.0 | 0.00 | 0.00 | 0.00 | 53 | 1017.8 |
| 20260507023013 | 14 | 158 | 0.0 | 1.6 | 0.00 | 0.00 | 0.00 | 52 | 1017.7 |
| 20260507021512 | 14 | 165 | 0.0 | 3.2 | 0.00 | 0.00 | 0.00 | 51 | 1017.5 |
| 20260507020018 | 15 | 148 | 0.0 | 8.0 | 0.00 | 0.00 | 0.00 | 51 | 1017.4 |
| 20260507014511 | 15 | 150 | 0.0 | 0.0 | 0.00 | 0.00 | 0.00 | 51 | 1017.1 |
| 20260507013013 | 15 | 150 | 0.0 | 0.0 | 0.00 | 0.00 | 0.00 | 50 | 1016.9 |
| 20260507011512 | 16 | 148 | 0.0 | 4.8 | 0.00 | 0.00 | 0.00 | 48 | 1016.7 |
| 20260507010011 | 16 | 171 | 0.0 | 4.8 | 0.00 | 0.00 | 0.00 | 46 | 1016.5 |
| 20260507004510 | 16 | 172 | 0.0 | 6.4 | 0.00 | 0.00 | 0.00 | 46 | 1016.4 |
| 20260507003008 | 17 | 170 | 1.6 | 6.4 | 0.00 | 0.00 | 0.00 | 46 | 1016.3 |
| 20260507001523 | 17 | 169 | 0.0 | 6.4 | 0.00 | 0.00 | 0.00 | 47 | 1016.2 |
| 20260507000013 | 17 | 170 | 0.0 | 6.4 | 0.00 | 0.00 | 0.00 | 46 | 1016.1 |
| 20260506234505 | 17 | 168 | 0.0 | 9.7 | 0.00 | 0.00 | 0.00 | 46 | 1016.1 |
| 20260506233005 | 17 | 172 | 0.0 | 4.8 | 0.00 | 0.00 | 0.00 | 46 | 1016.0 |
| 20260506231504 | 17 | 172 | 1.6 | 11.3 | 0.00 | 0.00 | 0.00 | 45 | 1016.0 |
| 20260506230003 | 18 | 171 | 0.0 | 9.7 | 0.00 | 0.00 | 0.00 | 45 | 1015.8 |
| 20260506224501 | 18 | 153 | 0.0 | 9.7 | 0.00 | 0.00 | 0.00 | 45 | 1015.7 |
| 20260506223001 | 17 | 172 | 0.0 | 11.3 | 0.00 | 0.00 | 0.00 | 45 | 1015.5 |
| 20260506221617 | 18 | 159 | 0.0 | 11.3 | 0.00 | 0.00 | 0.00 | 45 | 1015.4 |
| 20260506220100 | 18 | 169 | 1.6 | 11.3 | 0.00 | 0.00 | 0.00 | 43 | 1015.3 |
| 20260506214557 | 18 | 172 | 1.6 | 14.5 | 0.00 | 0.00 | 0.00 | 46 | 1015.2 |
| 20260506213102 | 17 | 175 | 3.2 | 9.7 | 0.00 | 0.00 | 0.00 | 45 | 1015.4 |
| 20260506211555 | 17 | 165 | 1.6 | 11.3 | 0.00 | 0.00 | 0.00 | 45 | 1015.4 |
| 20260506210057 | 17 | 172 | 0.0 | 9.7 | 0.00 | 0.00 | 0.00 | 45 | 1015.4 |
| 20260506204556 | 17 | 178 | 1.6 | 6.4 | 0.00 | 0.00 | 0.00 | 49 | 1015.7 |
| 20260506203108 | 17 | 174 | 1.6 | 9.7 | 0.00 | 0.00 | 0.00 | 48 | 1015.9 |
| 20260506201550 | 17 | 94 | 0.0 | 9.7 | 0.00 | 0.00 | 0.00 | 47 | 1016.1 |
| 20260506200055 | 17 | 152 | 1.6 | 8.0 | 0.00 | 0.00 | 0.00 | 49 | 1016.4 |
| 20260506194550 | 17 | 170 | 1.6 | 9.7 | 0.00 | 0.00 | 0.00 | 48 | 1016.3 |
| 20260506193051 | 17 | 154 | 1.6 | 11.3 | 0.00 | 0.00 | 0.00 | 49 | 1016.2 |
| 20260506191548 | 17 | 172 | 0.0 | 8.0 | 0.00 | 0.00 | 0.00 | 49 | 1016.5 |
| 20260506190050 | 17 | 165 | 1.6 | 11.3 | 0.00 | 0.00 | 0.00 | 49 | 1016.8 |
| 20260506184549 | 17 | 172 | 0.0 | 11.3 | 0.00 | 0.00 | 0.00 | 48 | 1017.0 |
| 20260506183046 | 17 | 148 | 0.0 | 11.3 | 0.00 | 0.00 | 0.00 | 48 | 1017.1 |
| 20260506181549 | 17 | 166 | 1.6 | 11.3 | 0.00 | 0.00 | 0.00 | 50 | 1017.3 |
| 20260506180042 | 17 | 172 | 3.2 | 12.9 | 0.00 | 0.00 | 0.00 | 49 | 1017.3 |
| 20260506174541 | 16 | 163 | 1.6 | 12.9 | 0.00 | 0.00 | 0.00 | 51 | 1017.3 |
| 20260506173044 | 17 | 174 | 0.0 | 11.3 | 0.00 | 0.00 | 0.00 | 50 | 1017.7 |
| 20260506171536 | 16 | 170 | 3.2 | 11.3 | 0.00 | 0.00 | 0.00 | 50 | 1018.2 |
| 20260506170038 | 16 | 170 | 1.6 | 12.9 | 0.00 | 0.00 | 0.00 | 52 | 1018.5 |
| 20260506164545 | 15 | 145 | 0.0 | 6.4 | 0.00 | 0.00 | 0.00 | 55 | 1018.6 |
| 20260506163032 | 15 | 169 | 1.6 | 8.0 | 0.00 | 0.00 | 0.00 | 54 | 1018.3 |
| 20260506161524 | 14 | 101 | 1.6 | 16.1 | 0.00 | 0.00 | 0.00 | 59 | 1018.4 |
| 20260506160020 | 13 | 151 | 1.6 | 8.0 | 0.00 | 0.00 | 0.00 | 60 | 1018.4 |
| 20260506154516 | 12 | 171 | 0.0 | 8.0 | 0.00 | 0.00 | 0.00 | 60 | 1017.9 |
| 20260506153014 | 13 | 172 | 1.6 | 9.7 | 0.00 | 0.00 | 0.00 | 60 | 1017.5 |
| 20260506151515 | 12 | 165 | 3.2 | 12.9 | 0.00 | 0.00 | 0.00 | 60 | 1017.0 |
| 20260506150009 | 12 | 154 | 1.6 | 9.7 | 0.00 | 0.00 | 0.00 | 62 | 1016.8 |
| 20260506144511 | 11 | 165 | 0.0 | 12.9 | 0.00 | 0.00 | 0.00 | 65 | 1016.9 |
| 20260506143003 | 11 | 172 | 3.2 | 11.3 | 0.00 | 0.00 | 0.00 | 66 | 1017.0 |
| 20260506141600 | 11 | 174 | 0.0 | 14.5 | 0.00 | 0.00 | 0.00 | 68 | 1016.7 |
| 20260506140100 | 10 | 172 | 1.6 | 14.5 | 0.00 | 0.00 | 0.00 | 70 | 1016.9 |